Flag for Poland Weather past 2 weeks in Włocławek, Poland

Now
59 °F

Fog.


Feels Like: 60 °F
Forecast: 56 / 72 °F
Wind: 3 mph from Southwest

Location: Plock

Current Time: Jul 28, 2015 at 8:35:01 AM

Latest Report: Jul 28, 2015 at 7:00 AM


Visibility: 6 mi

Pressure: 29.64 "Hg

Humidity: 96%

Dew point: 58 °F

Location of WłocławekLocation

Historic Weather in Włocławek — Graph

°F

Włocławek temperature yesterday

Maximum temperature yesterday: 70 °F (at 2:00 PM)
Minimum temperature yesterday: 47 °F (at 4:00 AM)
Average temperature yesterday: 60 °F

Past Weeks' High & Low Weather Summary

 TemperatureHumidityPressure
High93 °F (Jul 18, 3:00 PM)97% (Jul 13, 10:00 PM)30.10 "Hg (Jul 13, 10:00 PM)
Low47 °F (Jul 27, 4:00 AM)30% (Jul 18, 1:00 PM)29.61 "Hg (Jul 25, 3:00 PM)
Average67 °F70%29.89 "Hg
* Reported Jul 13 7:00 AM — Jul 28 7:00 AM, Włocławek, Weather by CustomWeather, © 2015

Note: Actual official high and low records may vary slightly from our data, if they occured in-between our weather recording intervals... More about our weather records

Advertising

Włocławek weather history for previous 24 hours

 ConditionsComfort  
Time TempWeatherWind HumidityBarometerVisibility
7:00 AM
Tue, Jul 28
59 °FFog.3 mph96%29.64 "Hg6 mi
6:00 AM58 °FFog.2 mph97%29.63 "Hg4 mi
5:00 AM57 °FFog.3 mph96%29.63 "Hg4 mi
4:00 AM57 °FCool.3 mph96%29.63 "Hg6 mi
3:00 AM57 °FCool.2 mph95%29.63 "Hg7 mi
2:00 AM58 °FCool.2 mph94%29.63 "Hg6 mi
1:00 AM58 °FFog.2 mph95%29.63 "Hg6 mi
12:00 AM58 °FCool.2 mph94%29.63 "Hg12 mi
10:00 PM
Mon, Jul 27
58 °FCool.2 mph91%29.64 "Hg7 mi
9:00 PM60 °FCool.2 mph89%29.64 "Hg9 mi
8:00 PM63 °FMild.2 mph82%29.64 "Hg19 mi
7:00 PM63 °FMild.2 mph87%29.64 "Hg14 mi
6:00 PM63 °FMild.2 mph90%29.65 "Hg14 mi
5:00 PM61 °FLots of rain. Cloudy.5 mph92%29.66 "Hg7 mi
4:00 PM62 °FCool.3 mph87%29.67 "Hg22 mi
3:00 PM63 °FRain. Cloudy.6 mph78%29.69 "Hg4 mi
2:00 PM70 °FMild.6 mph54%29.67 "Hg25 mi
1:00 PM70 °FMild.7 mph54%29.70 "Hg19 mi
12:00 PM67 °FMild.6 mph56%29.72 "Hg25 mi
11:00 AM65 °FMild.5 mph57%29.74 "Hg25 mi
10:00 AM66 °FMild.5 mph56%29.76 "Hg19 mi
9:00 AM64 °FMild.6 mph61%29.77 "Hg19 mi
8:00 AM60 °FCool.3 mph77%29.79 "Hg19 mi
Weather by CustomWeather, © 2015

See weather overviewHow to use our weather pages